Halifax, Nova Scotia

12:22 PM ADT on May 23, 2017 (GMT -0300)
Halifax International Airport

Weather History for CYHZ - November, 2013

Change the Weather History Date:

Tuesday, November 12, 2013

  Actual Average Record
Temperature  
Mean Temperature 36 °F -  
Max Temperature 43 °F 41 °F 61 °F (2012)
Min Temperature 28 °F 26 °F 19 °F (1999)
Degree Days  
Heating Degree Days 30    
Moisture  
Dew Point 33 °F    
Average Humidity 90    
Maximum Humidity 100    
Minimum Humidity 79    
Precipitation  
Precipitation 0.12 in 0.21 in - ()
Sea Level Pressure  
Sea Level Pressure 29.87 in    
Wind  
Wind Speed 9 mph ()    
Max Wind Speed 21 mph    
Max Gust Speed 24 mph    
Visibility 10.4 miles    
Events Rain , Snow    
Averages and records for this station are not official NWS values.
T = Trace of Precipitation, MM = Missing Value Source: Averaged Metar Reports

Daily Weather History Graph

Daily Weather History Graph

Search for Another Location

Airport or City:

Trip Planner

Search our weather history database for the weather conditions in past years. The results will help you decide how hot, cold, wet, or windy it might be!

Date:

Astronomy

Nov. 12, 2013 Rise Set
Actual Time 7:07 AM AST 4:48 PM AST
Civil Twilight 6:36 AM AST 5:19 PM AST
Nautical Twilight 6:00 AM AST 5:55 PM AST
Astronomical Twilight 5:26 AM AST 6:29 PM AST
Moon 2:11 PM AST (11/12) 1:39 AM AST (11/12)
Length of Visible Light 10h 43m
Length of Day
9h 40m
Waxing Gibbous, 75% of the Moon is Illuminated
Nov 12
Waxing Gibbous
Nov 17
Full
Nov 25
Last Quarter
Dec 2
New
Dec 9
First Quarter

Hourly Weather History & Observations

Time (AST) Temp. Windchill Dew Point Humidity Pressure Visibility Wind Dir Wind Speed Gust Speed Precip Events Conditions
12:00 AM 35.6 °F 29.2 °F 30.2 °F 81% 29.96 in 15.0 mi West 8.1 mph - N/A   Mostly Cloudy
1:00 AM 33.8 °F 27.0 °F 30.2 °F 87% 29.96 in 15.0 mi WSW 8.1 mph - N/A   Mostly Cloudy
2:00 AM 34 °F - 31 °F 84% 29.95 in 15 mi SSW 5.8 mph - -   Mostly Cloudy
2:00 AM 33.8 °F 28.6 °F 30.2 °F 87% 29.95 in 15.0 mi SSW 5.8 mph - N/A   Mostly Cloudy
3:00 AM 33.8 °F 28.6 °F 32.0 °F 93% 29.94 in 15.0 mi South 5.8 mph - N/A   Overcast
4:00 AM 35.6 °F 30.7 °F 32.0 °F 87% 29.93 in 15.0 mi South 5.8 mph - N/A   Overcast
5:00 AM 35.6 °F 29.2 °F 32.0 °F 87% 29.91 in 15.0 mi SE 8.1 mph - N/A   Overcast
5:48 AM 35.6 °F 28.6 °F 33.8 °F 93% 29.88 in 10.0 mi SE 9.2 mph - N/A Rain Light Rain Showers
6:00 AM 35.6 °F 29.2 °F 33.8 °F 93% 29.88 in 8.0 mi SE 8.1 mph - N/A Rain Light Rain Showers
6:47 AM 37.4 °F 33.8 °F 37.4 °F 100% 29.87 in 6.0 mi South 4.6 mph - N/A Rain Light Rain
7:00 AM 39.2 °F 32.5 °F 39.2 °F 100% 29.87 in 6.0 mi South 10.4 mph - N/A Rain Light Rain
8:00 AM 42 °F - 39 °F 87% 29.86 in 6 mi SW 15.0 mph - - Rain Light Rain
8:00 AM 41.0 °F 33.1 °F 39.2 °F 93% 29.86 in 6.0 mi SW 15.0 mph 20.7 mph N/A Rain Light Rain
9:00 AM 41.0 °F 34.3 °F 39.2 °F 93% 29.85 in 7.0 mi SSW 11.5 mph - N/A Rain Light Rain
10:00 AM 41.0 °F 34.3 °F 41.0 °F 100% 29.83 in 15.0 mi SW 11.5 mph 20.7 mph N/A Rain Light Rain
11:00 AM 42.8 °F 35.8 °F 41.0 °F 93% 29.83 in 15.0 mi SSW 13.8 mph - N/A   Overcast
12:00 PM 42.8 °F 36.2 °F 41.0 °F 93% 29.81 in 15.0 mi SW 12.7 mph 19.6 mph N/A Rain Light Rain
1:00 PM 42.8 °F 35.4 °F 41.0 °F 93% 29.80 in 15.0 mi SW 15.0 mph - N/A Rain Light Rain
2:00 PM 39 °F - 37 °F 92% 29.81 in 10 mi WNW 15.0 mph - - Rain Light Rain
2:00 PM 39.2 °F 30.8 °F 37.4 °F 93% 29.81 in 10.0 mi WNW 15.0 mph 21.9 mph N/A Rain Light Rain
2:44 PM 35.6 °F 25.9 °F 33.8 °F 93% 29.83 in 10.0 mi NW 16.1 mph 24.2 mph N/A Rain Light Rain
3:00 PM 35.6 °F 27.1 °F 33.8 °F 93% 29.83 in 10.0 mi WNW 12.7 mph 19.6 mph N/A Rain , Snow Light Rain
3:21 PM 33.8 °F 24.3 °F 33.8 °F 100% 29.84 in 8.0 mi NW 13.8 mph - N/A Rain , Snow Light Rain
3:32 PM 33.8 °F 23.9 °F 32.0 °F 93% 29.84 in 1.2 mi NW 15.0 mph - N/A Snow Light Snow
3:36 PM 33.8 °F 23.2 °F 32.0 °F 93% 29.84 in 1.0 mi NW 17.3 mph - N/A Snow Light Snow
4:00 PM 32.0 °F 21.6 °F 30.2 °F 93% 29.85 in 1.0 mi NW 15.0 mph 23.0 mph N/A Snow Light Snow
4:35 PM 32.0 °F 23.0 °F 30.2 °F 93% 29.85 in 1.0 mi WNW 11.5 mph - N/A Snow Light Snow
5:00 PM 32.0 °F 19.8 °F 30.2 °F 93% 29.86 in 1.0 mi NW 20.7 mph - N/A Snow Light Snow
5:33 PM 30.2 °F 19.3 °F 28.4 °F 93% 29.88 in 1.5 mi NW 15.0 mph - N/A Snow Light Snow
6:00 PM 30.2 °F 21.3 °F 26.6 °F 86% 29.88 in 10.0 mi NW 10.4 mph - N/A Snow Light Snow
6:42 PM 30.2 °F 22.6 °F 26.6 °F 86% 29.87 in 15.0 mi West 8.1 mph - N/A   Overcast
7:00 PM 32.0 °F 24.2 °F 26.6 °F 80% 29.87 in 15.0 mi WNW 9.2 mph - N/A   Overcast
8:00 PM 30 °F - 26 °F 79% 29.88 in 15 mi WNW 15.0 mph - -   Partly Cloudy
8:00 PM 30.2 °F 19.8 °F 26.6 °F 86% 29.87 in 15.0 mi NW 13.8 mph 21.9 mph N/A   Overcast
9:00 PM 28.4 °F 16.6 °F 24.8 °F 86% 29.90 in 15.0 mi NW 16.1 mph 23.0 mph N/A   Mostly Cloudy
10:00 PM 28.4 °F 19.1 °F 23.0 °F 80% 29.91 in 15.0 mi NNW 10.4 mph - N/A   Overcast
11:00 PM 28.4 °F 19.7 °F 23.0 °F 80% 29.91 in 15.0 mi WNW 9.2 mph - N/A   Mostly Cloudy